| time (UTC) | temp F | wind direction | speed knots | gust knots | rain 1hr in | rain 24hr in | rain mn in | humidity % | barometer mb |
| 20260507185706 | 72 | 106 | 2.6 | 5.2 | 0.00 | 0.00 | 0.00 | 99 | 1023.7 |
| 20260507185202 | 72 | 146 | 1.7 | 6.1 | 0.00 | 0.00 | 0.00 | 99 | 1023.6 |
| 20260507184700 | 71 | 0 | 4.3 | 5.2 | 0.00 | 0.00 | 0.00 | 99 | 1023.8 |
| 20260507184158 | 71 | 54 | 0.9 | 7.0 | 0.00 | 0.00 | 0.00 | 99 | 1024.0 |
| 20260507183654 | 71 | 25 | 5.2 | 5.2 | 0.00 | 0.00 | 0.00 | 99 | 1024.3 |
| 20260507183151 | 71 | 68 | 1.7 | 7.0 | 0.00 | 0.00 | 0.00 | 99 | 1024.0 |
| 20260507182648 | 71 | 168 | 0.0 | 1.7 | 0.00 | 0.00 | 0.00 | 99 | 1024.1 |
| 20260507182143 | 70 | 62 | 0.0 | 8.7 | 0.00 | 0.00 | 0.00 | 99 | 1024.3 |
| 20260507181640 | 70 | 90 | 1.7 | 5.2 | 0.00 | 0.00 | 0.00 | 99 | 1024.2 |
| 20260507181136 | 70 | 120 | 0.0 | 7.0 | 0.00 | 0.00 | 0.00 | 99 | 1024.5 |
| 20260507180633 | 69 | 60 | 2.6 | 6.1 | 0.00 | 0.00 | 0.00 | 99 | 1024.7 |
| 20260507180130 | 70 | 11 | 1.7 | 3.5 | 0.00 | 0.00 | 0.00 | 99 | 1024.4 |
| 20260507175626 | 69 | 299 | 2.6 | 4.3 | 0.00 | 0.00 | 0.00 | 99 | 1024.7 |
| 20260507175123 | 69 | 49 | 4.3 | 7.0 | 0.00 | 0.00 | 0.00 | 99 | 1024.7 |
| 20260507174620 | 68 | 29 | 0.9 | 8.7 | 0.00 | 0.00 | 0.00 | 99 | 1024.8 |
| 20260507174118 | 68 | 58 | 4.3 | 8.7 | 0.00 | 0.00 | 0.00 | 99 | 1025.0 |
| 20260507173615 | 68 | 64 | 2.6 | 5.2 | 0.00 | 0.00 | 0.00 | 99 | 1025.4 |
| 20260507173112 | 68 | 90 | 0.9 | 3.5 | 0.00 | 0.00 | 0.00 | 99 | 1025.2 |
| 20260507172608 | 68 | 105 | 0.0 | 7.0 | 0.00 | 0.00 | 0.00 | 99 | 1025.4 |
| 20260507172106 | 68 | 349 | 1.7 | 2.6 | 0.00 | 0.00 | 0.00 | 99 | 1025.6 |
| 20260507171600 | 69 | 117 | 0.0 | 3.5 | 0.00 | 0.00 | 0.00 | 99 | 1025.8 |
| 20260507171058 | 68 | 28 | 1.7 | 4.3 | 0.00 | 0.00 | 0.00 | 99 | 1026.3 |
| 20260507170555 | 68 | 82 | 0.9 | 5.2 | 0.00 | 0.00 | 0.00 | 99 | 1026.3 |
| 20260507170052 | 67 | 25 | 2.6 | 4.3 | 0.00 | 0.00 | 0.00 | 99 | 1026.4 |
| 20260507165547 | 66 | 114 | 0.9 | 4.3 | 0.00 | 0.00 | 0.00 | 99 | 1026.1 |
| 20260507165044 | 67 | 90 | 2.6 | 4.3 | 0.00 | 0.00 | 0.00 | 99 | 1026.5 |
| 20260507164540 | 66 | 36 | 0.0 | 1.7 | 0.00 | 0.00 | 0.00 | 99 | 1026.3 |
| 20260507164037 | 66 | 0 | 1.7 | 7.8 | 0.00 | 0.00 | 0.00 | 99 | 1026.5 |
| 20260507163535 | 66 | 66 | 3.5 | 6.1 | 0.00 | 0.00 | 0.00 | 99 | 1026.7 |
| 20260507163032 | 65 | 32 | 2.6 | 5.2 | 0.00 | 0.00 | 0.00 | 99 | 1026.5 |
| 20260507162527 | 66 | 354 | 0.0 | 2.6 | 0.00 | 0.00 | 0.00 | 99 | 1026.4 |
| 20260507162024 | 65 | 81 | 2.6 | 6.1 | 0.00 | 0.00 | 0.00 | 99 | 1026.1 |
| 20260507161520 | 66 | 90 | 0.0 | 3.5 | 0.00 | 0.00 | 0.00 | 99 | 1026.4 |
| 20260507161017 | 65 | 105 | 0.9 | 4.3 | 0.00 | 0.00 | 0.00 | 99 | 1026.4 |
| 20260507160513 | 66 | 15 | 2.6 | 3.5 | 0.00 | 0.00 | 0.00 | 99 | 1026.5 |
| 20260507160010 | 66 | 125 | 1.7 | 2.6 | 0.00 | 0.00 | 0.00 | 99 | 1026.6 |
| 20260507155505 | 65 | 109 | 0.9 | 5.2 | 0.00 | 0.00 | 0.00 | 99 | 1026.7 |
| 20260507155003 | 64 | 79 | 0.0 | 3.5 | 0.00 | 0.00 | 0.00 | 99 | 1026.5 |
| 20260507154459 | 64 | 0 | 0.0 | 3.5 | 0.00 | 0.00 | 0.00 | 99 | 1026.9 |
| 20260507153956 | 64 | 72 | 0.0 | 4.3 | 0.00 | 0.00 | 0.00 | 99 | 1026.5 |
| 20260507153453 | 64 | 59 | 2.6 | 2.6 | 0.00 | 0.00 | 0.00 | 99 | 1026.8 |
| 20260507152949 | 62 | 14 | 4.3 | 5.2 | 0.00 | 0.00 | 0.00 | 99 | 1026.6 |
| 20260507152445 | 62 | 66 | 0.0 | 6.1 | 0.00 | 0.00 | 0.00 | 99 | 1026.7 |
| 20260507151941 | 63 | 29 | 0.9 | 2.6 | 0.00 | 0.00 | 0.00 | 99 | 1026.8 |
| 20260507151438 | 62 | 42 | 2.6 | 4.3 | 0.00 | 0.00 | 0.00 | 99 | 1026.9 |
| 20260507150935 | 62 | 75 | 0.0 | 3.5 | 0.00 | 0.00 | 0.00 | 99 | 1027.0 |
| 20260507150432 | 62 | 50 | 2.6 | 5.2 | 0.00 | 0.00 | 0.00 | 99 | 1027.1 |
| 20260507145928 | 62 | 317 | 3.5 | 6.1 | 0.00 | 0.00 | 0.00 | 99 | 1027.0 |
| 20260507145424 | 62 | 57 | 1.7 | 4.3 | 0.00 | 0.00 | 0.00 | 99 | 1026.9 |
| 20260507144921 | 63 | 0 | 2.6 | 7.0 | 0.00 | 0.00 | 0.00 | 99 | 1026.8 |
| 20260507144418 | 63 | 77 | 0.9 | 2.6 | 0.00 | 0.00 | 0.00 | 99 | 1027.2 |
| 20260507143915 | 63 | 84 | 1.7 | 3.5 | 0.00 | 0.00 | 0.00 | 99 | 1027.2 |
| 20260507143413 | 62 | 57 | 3.5 | 6.1 | 0.00 | 0.00 | 0.00 | 99 | 1027.1 |
| 20260507142909 | 62 | 75 | 0.9 | 2.6 | 0.00 | 0.00 | 0.00 | 99 | 1027.1 |
| 20260507142404 | 61 | 90 | 0.0 | 4.3 | 0.00 | 0.00 | 0.00 | 99 | 1027.2 |
| 20260507141902 | 60 | 99 | 1.7 | 3.5 | 0.00 | 0.00 | 0.00 | 99 | 1027.2 |
| 20260507141358 | 59 | 22 | 3.5 | 4.3 | 0.00 | 0.00 | 0.00 | 99 | 1027.4 |
| 20260507140855 | 59 | 34 | 0.0 | 4.3 | 0.00 | 0.00 | 0.00 | 99 | 1027.4 |
| 20260507140351 | 60 | 114 | 0.9 | 2.6 | 0.00 | 0.00 | 0.00 | 99 | 1027.4 |
| 20260507135849 | 59 | 78 | 1.7 | 3.5 | 0.00 | 0.00 | 0.00 | 99 | 1027.4 |
| 20260507135346 | 58 | 71 | 1.7 | 1.7 | 0.00 | 0.00 | 0.00 | 99 | 1027.3 |
| 20260507134843 | 58 | 0 | 1.7 | 2.6 | 0.00 | 0.00 | 0.00 | 99 | 1027.4 |
| 20260507134339 | 58 | 337 | 2.6 | 2.6 | 0.00 | 0.00 | 0.00 | 99 | 1027.4 |
| 20260507133835 | 57 | 297 | 0.9 | 3.5 | 0.00 | 0.00 | 0.00 | 99 | 1027.6 |
| 20260507133331 | 57 | 291 | 0.0 | 2.6 | 0.00 | 0.00 | 0.00 | 99 | 1027.5 |
| 20260507132830 | 57 | 337 | 2.6 | 3.5 | 0.00 | 0.00 | 0.00 | 99 | 1027.5 |
| 20260507132326 | 57 | 354 | 0.9 | 2.6 | 0.00 | 0.00 | 0.00 | 99 | 1027.4 |
| 20260507131823 | 56 | 352 | 0.0 | 2.6 | 0.00 | 0.00 | 0.00 | 99 | 1027.4 |
| 20260507131320 | 56 | 0 | 0.0 | 2.6 | 0.00 | 0.00 | 0.00 | 99 | 1027.5 |
| 20260507130817 | 56 | 289 | 2.6 | 2.6 | 0.00 | 0.00 | 0.00 | 99 | 1027.6 |
| 20260507130314 | 55 | 246 | 1.7 | 3.5 | 0.00 | 0.00 | 0.00 | 99 | 1027.3 |
| 20260507125813 | 55 | 32 | 2.6 | 5.2 | 0.00 | 0.00 | 0.00 | 99 | 1027.2 |
| 20260507125310 | 55 | 355 | 0.9 | 3.5 | 0.00 | 0.00 | 0.00 | 99 | 1027.3 |
| 20260507124807 | 55 | 15 | 0.9 | 1.7 | 0.00 | 0.00 | 0.00 | 99 | 1026.9 |
| 20260507124303 | 54 | 294 | 0.9 | 2.6 | 0.00 | 0.00 | 0.00 | 99 | 1027.3 |
| 20260507123802 | 54 | 342 | 0.0 | 1.7 | 0.00 | 0.00 | 0.00 | 99 | 1027.2 |
| 20260507123259 | 53 | 295 | 1.7 | 1.7 | 0.00 | 0.00 | 0.00 | 99 | 1027.2 |
| 20260507122754 | 53 | 279 | 0.0 | 1.7 | 0.00 | 0.00 | 0.00 | 99 | 1027.2 |
| 20260507122250 | 52 | 270 | 0.0 | 0.9 | 0.00 | 0.00 | 0.00 | 99 | 1027.1 |
| 20260507121746 | 52 | 270 | 0.0 | 0.0 | 0.00 | 0.00 | 0.00 | 99 | 1027.1 |
| 20260507121242 | 51 | 261 | 0.0 | 0.0 | 0.00 | 0.00 | 0.00 | 99 | 1026.9 |
| 20260507120738 | 51 | 261 | 0.0 | 0.0 | 0.00 | 0.00 | 0.00 | 99 | 1027.0 |
| 20260507120235 | 51 | 261 | 0.0 | 0.0 | 0.00 | 0.00 | 0.00 | 99 | 1026.9 |
| 20260507115731 | 51 | 261 | 0.0 | 0.0 | 0.00 | 0.00 | 0.00 | 99 | 1026.6 |
| 20260507115228 | 51 | 261 | 0.0 | 0.0 | 0.00 | 0.00 | 0.00 | 99 | 1026.8 |
| 20260507114723 | 51 | 261 | 0.0 | 0.9 | 0.00 | 0.00 | 0.00 | 99 | 1026.6 |
| 20260507114221 | 51 | 286 | 0.0 | 0.0 | 0.00 | 0.00 | 0.00 | 99 | 1026.6 |
| 20260507113718 | 51 | 279 | 0.0 | 0.9 | 0.00 | 0.00 | 0.00 | 99 | 1026.3 |
| 20260507113215 | 52 | 294 | 0.0 | 1.7 | 0.00 | 0.00 | 0.00 | 99 | 1026.6 |
| 20260507112713 | 51 | 278 | 0.0 | 0.0 | 0.00 | 0.00 | 0.00 | 99 | 1026.4 |
| 20260507112209 | 52 | 257 | 0.9 | 2.6 | 0.00 | 0.00 | 0.00 | 99 | 1026.3 |
| 20260507111707 | 52 | 217 | 0.0 | 1.7 | 0.00 | 0.00 | 0.00 | 99 | 1026.2 |
| 20260507111204 | 52 | 278 | 0.0 | 2.6 | 0.00 | 0.00 | 0.00 | 99 | 1026.1 |
| 20260507110659 | 51 | 291 | 0.0 | 1.7 | 0.00 | 0.00 | 0.00 | 99 | 1026.0 |
| 20260507110156 | 51 | 340 | 0.0 | 1.7 | 0.00 | 0.00 | 0.00 | 99 | 1026.0 |
| 20260507105653 | 51 | 297 | 0.0 | 0.9 | 0.00 | 0.00 | 0.00 | 99 | 1026.0 |
| 20260507105149 | 51 | 331 | 0.0 | 0.0 | 0.00 | 0.00 | 0.00 | 99 | 1025.8 |
| 20260507104647 | 51 | 279 | 0.0 | 0.0 | 0.00 | 0.00 | 0.00 | 99 | 1025.7 |
| 20260507104143 | 51 | 345 | 0.0 | 0.0 | 0.00 | 0.00 | 0.00 | 99 | 1025.5 |
| 20260507103639 | 51 | 352 | 0.0 | 0.0 | 0.00 | 0.00 | 0.00 | 99 | 1025.5 |
| 20260507103136 | 51 | 279 | 0.0 | 0.0 | 0.00 | 0.00 | 0.00 | 99 | 1025.4 |
| 20260507102632 | 51 | 279 | 0.0 | 0.0 | 0.00 | 0.00 | 0.00 | 99 | 1025.4 |
| 20260507102128 | 51 | 90 | 0.0 | 0.0 | 0.00 | 0.00 | 0.00 | 99 | 1025.0 |
| 20260507101624 | 52 | 90 | 0.0 | 0.0 | 0.00 | 0.00 | 0.00 | 99 | 1025.4 |
| 20260507101120 | 52 | 90 | 0.0 | 0.0 | 0.00 | 0.00 | 0.00 | 99 | 1025.1 |
| 20260507100618 | 52 | 90 | 0.0 | 0.0 | 0.00 | 0.00 | 0.00 | 99 | 1025.1 |
| 20260507100116 | 52 | 90 | 0.0 | 0.0 | 0.00 | 0.00 | 0.00 | 99 | 1024.9 |
| 20260507095614 | 52 | 306 | 0.9 | 1.7 | 0.00 | 0.00 | 0.00 | 99 | 1024.8 |
| 20260507095110 | 52 | 345 | 0.0 | 0.9 | 0.00 | 0.00 | 0.00 | 99 | 1025.1 |
| 20260507094606 | 52 | 345 | 0.0 | 0.9 | 0.00 | 0.00 | 0.00 | 99 | 1024.9 |
| 20260507094103 | 52 | 7 | 0.0 | 0.9 | 0.00 | 0.00 | 0.00 | 99 | 1024.9 |
| 20260507093601 | 52 | 82 | 0.0 | 0.9 | 0.00 | 0.00 | 0.00 | 99 | 1024.8 |
| 20260507093059 | 52 | 0 | 0.0 | 1.7 | 0.00 | 0.00 | 0.00 | 99 | 1024.6 |
| 20260507092555 | 52 | 8 | 0.0 | 0.9 | 0.00 | 0.00 | 0.00 | 99 | 1024.8 |
| 20260507092052 | 53 | 74 | 0.0 | 1.7 | 0.00 | 0.00 | 0.00 | 99 | 1024.8 |
| 20260507091549 | 53 | 7 | 0.0 | 0.9 | 0.00 | 0.00 | 0.00 | 99 | 1024.9 |
| 20260507091045 | 53 | 29 | 0.9 | 1.7 | 0.00 | 0.00 | 0.00 | 99 | 1024.8 |
| 20260507090541 | 53 | 48 | 1.7 | 2.6 | 0.00 | 0.00 | 0.00 | 99 | 1024.6 |
| 20260507090038 | 53 | 15 | 0.9 | 1.7 | 0.00 | 0.00 | 0.00 | 99 | 1024.9 |
| 20260507085535 | 53 | 346 | 0.0 | 1.7 | 0.00 | 0.00 | 0.00 | 99 | 1024.7 |
| 20260507085032 | 53 | 35 | 0.0 | 1.7 | 0.00 | 0.00 | 0.00 | 99 | 1024.4 |
| 20260507084528 | 53 | 0 | 0.0 | 1.7 | 0.00 | 0.00 | 0.00 | 99 | 1024.5 |
| 20260507084026 | 53 | 60 | 0.0 | 2.6 | 0.00 | 0.00 | 0.00 | 99 | 1024.5 |
| 20260507083521 | 53 | 23 | 0.0 | 0.0 | 0.00 | 0.00 | 0.00 | 99 | 1024.5 |
| 20260507083019 | 54 | 49 | 0.0 | 2.6 | 0.00 | 0.00 | 0.00 | 99 | 1024.6 |
| 20260507082515 | 54 | 45 | 2.6 | 2.6 | 0.00 | 0.00 | 0.00 | 99 | 1024.7 |
| 20260507082011 | 54 | 45 | 2.6 | 2.6 | 0.00 | 0.00 | 0.00 | 99 | 1024.7 |
| 20260507081508 | 54 | 63 | 0.0 | 3.5 | 0.00 | 0.00 | 0.00 | 99 | 1024.5 |
| 20260507081005 | 53 | 85 | 1.7 | 1.7 | 0.00 | 0.00 | 0.00 | 99 | 1024.5 |
| 20260507080500 | 54 | 80 | 0.0 | 2.6 | 0.00 | 0.00 | 0.00 | 99 | 1024.4 |
| 20260507075956 | 54 | 71 | 0.9 | 1.7 | 0.00 | 0.00 | 0.00 | 99 | 1024.4 |
| 20260507075452 | 54 | 47 | 2.6 | 2.6 | 0.00 | 0.00 | 0.00 | 99 | 1024.5 |
| 20260507074949 | 54 | 14 | 0.0 | 2.6 | 0.00 | 0.00 | 0.00 | 99 | 1024.4 |
| 20260507074446 | 54 | 11 | 0.9 | 2.6 | 0.00 | 0.00 | 0.00 | 99 | 1024.3 |
| 20260507073944 | 54 | 82 | 0.9 | 3.5 | 0.00 | 0.00 | 0.00 | 99 | 1024.1 |
| 20260507073440 | 54 | 45 | 2.6 | 4.3 | 0.00 | 0.00 | 0.00 | 99 | 1024.0 |
| 20260507072937 | 54 | 21 | 3.5 | 3.5 | 0.00 | 0.00 | 0.00 | 99 | 1024.4 |
| 20260507072434 | 54 | 69 | 0.9 | 4.3 | 0.00 | 0.00 | 0.00 | 99 | 1024.3 |
| 20260507071932 | 54 | 90 | 0.0 | 2.6 | 0.00 | 0.00 | 0.00 | 99 | 1024.4 |
| 20260507071429 | 55 | 14 | 0.0 | 2.6 | 0.00 | 0.00 | 0.00 | 99 | 1024.5 |
| 20260507070925 | 55 | 41 | 1.7 | 1.7 | 0.00 | 0.00 | 0.00 | 99 | 1024.5 |
| 20260507070423 | 55 | 18 | 0.9 | 1.7 | 0.00 | 0.00 | 0.00 | 99 | 1024.6 |
| 20260507065919 | 55 | 90 | 0.0 | 2.6 | 0.00 | 0.00 | 0.00 | 99 | 1024.3 |
| 20260507065416 | 55 | 98 | 0.0 | 3.5 | 0.00 | 0.00 | 0.00 | 99 | 1024.4 |
| 20260507064913 | 55 | 65 | 1.7 | 3.5 | 0.00 | 0.00 | 0.00 | 99 | 1024.4 |
| 20260507064411 | 55 | 119 | 0.0 | 3.5 | 0.00 | 0.00 | 0.00 | 99 | 1024.2 |
| 20260507063909 | 55 | 52 | 2.6 | 3.5 | 0.00 | 0.00 | 0.00 | 99 | 1024.2 |
| 20260507063406 | 55 | 180 | 0.0 | 2.6 | 0.00 | 0.00 | 0.00 | 99 | 1024.1 |
| 20260507062903 | 55 | 81 | 0.0 | 2.6 | 0.00 | 0.00 | 0.00 | 99 | 1024.3 |
| 20260507062359 | 55 | 41 | 3.5 | 4.3 | 0.00 | 0.00 | 0.00 | 99 | 1024.1 |
| 20260507061857 | 55 | 18 | 1.7 | 2.6 | 0.00 | 0.00 | 0.00 | 99 | 1023.9 |
| 20260507061355 | 55 | 105 | 0.0 | 1.7 | 0.00 | 0.00 | 0.00 | 99 | 1023.9 |
| 20260507060853 | 55 | 144 | 0.0 | 3.5 | 0.00 | 0.00 | 0.00 | 99 | 1024.0 |
| 20260507060349 | 56 | 90 | 0.0 | 1.7 | 0.00 | 0.00 | 0.00 | 99 | 1023.9 |
| 20260507055846 | 56 | 90 | 0.9 | 3.5 | 0.00 | 0.00 | 0.00 | 99 | 1024.0 |
| 20260507055341 | 56 | 140 | 1.7 | 1.7 | 0.00 | 0.00 | 0.00 | 99 | 1023.8 |
| 20260507054839 | 56 | 140 | 0.0 | 1.7 | 0.00 | 0.00 | 0.00 | 99 | 1023.8 |
| 20260507054335 | 56 | 49 | 1.7 | 1.7 | 0.00 | 0.00 | 0.00 | 99 | 1023.9 |
| 20260507053832 | 56 | 56 | 1.7 | 1.7 | 0.00 | 0.00 | 0.00 | 99 | 1023.8 |
| 20260507053329 | 56 | 67 | 1.7 | 1.7 | 0.00 | 0.00 | 0.00 | 99 | 1023.8 |
| 20260507052828 | 56 | 100 | 1.7 | 1.7 | 0.00 | 0.00 | 0.00 | 99 | 1024.0 |
| 20260507052324 | 57 | 99 | 0.0 | 0.9 | 0.00 | 0.00 | 0.00 | 99 | 1023.9 |
| 20260507051822 | 57 | 97 | 0.0 | 1.7 | 0.00 | 0.00 | 0.00 | 99 | 1024.0 |
| 20260507051320 | 57 | 111 | 0.0 | 0.9 | 0.00 | 0.00 | 0.00 | 99 | 1023.9 |
| 20260507050816 | 57 | 10 | 2.6 | 3.5 | 0.00 | 0.00 | 0.00 | 99 | 1023.9 |
| 20260507050313 | 57 | 106 | 0.9 | 3.5 | 0.00 | 0.00 | 0.00 | 99 | 1024.3 |
| 20260507045810 | 57 | 90 | 0.9 | 3.5 | 0.00 | 0.00 | 0.00 | 99 | 1024.1 |
| 20260507045307 | 57 | 90 | 0.0 | 2.6 | 0.00 | 0.00 | 0.00 | 99 | 1023.9 |
| 20260507044803 | 58 | 90 | 0.0 | 0.9 | 0.00 | 0.00 | 0.00 | 99 | 1024.1 |
| 20260507044300 | 57 | 8 | 0.0 | 1.7 | 0.00 | 0.00 | 0.00 | 99 | 1024.1 |
| 20260507043756 | 58 | 98 | 0.0 | 3.5 | 0.00 | 0.00 | 0.00 | 99 | 1024.0 |
| 20260507043252 | 58 | 94 | 1.7 | 2.6 | 0.00 | 0.00 | 0.00 | 99 | 1023.9 |
| 20260507042749 | 58 | 90 | 0.9 | 2.6 | 0.00 | 0.00 | 0.00 | 99 | 1023.9 |
| 20260507042244 | 58 | 130 | 0.0 | 4.3 | 0.00 | 0.00 | 0.00 | 99 | 1024.1 |
| 20260507041742 | 58 | 56 | 0.0 | 2.6 | 0.00 | 0.00 | 0.00 | 99 | 1024.3 |
| 20260507041238 | 58 | 82 | 0.0 | 7.0 | 0.00 | 0.00 | 0.00 | 99 | 1024.6 |
| 20260507040735 | 58 | 41 | 1.7 | 5.2 | 0.00 | 0.00 | 0.00 | 99 | 1024.5 |
| 20260507040231 | 58 | 59 | 4.3 | 6.1 | 0.00 | 0.00 | 0.00 | 99 | 1024.4 |
| 20260507035727 | 59 | 120 | 0.0 | 5.2 | 0.00 | 0.00 | 0.00 | 99 | 1024.5 |
| 20260507035223 | 59 | 110 | 2.6 | 4.3 | 0.00 | 0.00 | 0.00 | 99 | 1024.4 |
| 20260507034721 | 58 | 66 | 0.0 | 2.6 | 0.00 | 0.00 | 0.00 | 99 | 1024.4 |
| 20260507034218 | 58 | 90 | 0.9 | 5.2 | 0.00 | 0.00 | 0.00 | 99 | 1024.5 |
| 20260507033716 | 59 | 103 | 0.0 | 3.5 | 0.00 | 0.00 | 0.00 | 99 | 1024.4 |
| 20260507033213 | 59 | 110 | 0.0 | 3.5 | 0.00 | 0.00 | 0.00 | 99 | 1024.3 |
| 20260507032710 | 59 | 105 | 0.9 | 3.5 | 0.00 | 0.00 | 0.00 | 99 | 1024.1 |
| 20260507032206 | 59 | 74 | 0.0 | 4.3 | 0.00 | 0.00 | 0.00 | 99 | 1024.4 |
| 20260507031703 | 59 | 82 | 0.9 | 2.6 | 0.00 | 0.00 | 0.00 | 99 | 1024.2 |
| 20260507031200 | 59 | 20 | 2.6 | 7.0 | 0.00 | 0.00 | 0.00 | 99 | 1024.3 |
| 20260507030656 | 59 | 75 | 4.3 | 5.2 | 0.00 | 0.00 | 0.00 | 99 | 1024.1 |
| 20260507030154 | 59 | 56 | 1.7 | 3.5 | 0.00 | 0.00 | 0.00 | 99 | 1023.7 |
| 20260507025651 | 59 | 354 | 2.6 | 3.5 | 0.00 | 0.00 | 0.00 | 99 | 1023.7 |
| 20260507025148 | 59 | 38 | 1.7 | 5.2 | 0.00 | 0.00 | 0.00 | 99 | 1023.8 |
| 20260507024646 | 59 | 90 | 1.7 | 5.2 | 0.00 | 0.00 | 0.00 | 99 | 1023.5 |
| 20260507024143 | 59 | 78 | 2.6 | 4.3 | 0.00 | 0.00 | 0.00 | 99 | 1023.5 |
| 20260507023638 | 59 | 52 | 3.5 | 3.5 | 0.00 | 0.00 | 0.00 | 99 | 1023.4 |
| 20260507023136 | 59 | 105 | 0.0 | 2.6 | 0.00 | 0.00 | 0.00 | 99 | 1023.3 |
| 20260507022633 | 59 | 97 | 0.0 | 4.3 | 0.00 | 0.00 | 0.00 | 99 | 1023.3 |
| 20260507022128 | 59 | 38 | 2.6 | 5.2 | 0.00 | 0.00 | 0.00 | 99 | 1023.1 |
| 20260507021625 | 59 | 83 | 0.9 | 4.3 | 0.00 | 0.00 | 0.00 | 99 | 1022.9 |
| 20260507021120 | 59 | 90 | 0.9 | 3.5 | 0.00 | 0.00 | 0.00 | 99 | 1022.9 |
| 20260507020619 | 59 | 98 | 0.9 | 2.6 | 0.00 | 0.00 | 0.00 | 99 | 1022.9 |
| 20260507020115 | 59 | 41 | 1.7 | 2.6 | 0.00 | 0.00 | 0.00 | 99 | 1022.9 |
| 20260507015614 | 59 | 57 | 3.5 | 6.1 | 0.00 | 0.00 | 0.00 | 99 | 1022.7 |
| 20260507015111 | 59 | 28 | 4.3 | 6.1 | 0.00 | 0.00 | 0.00 | 99 | 1022.8 |
| 20260507014607 | 59 | 41 | 1.7 | 5.2 | 0.00 | 0.00 | 0.00 | 99 | 1022.6 |
| 20260507014103 | 59 | 54 | 0.0 | 5.2 | 0.00 | 0.00 | 0.00 | 99 | 1022.4 |
| 20260507013600 | 59 | 58 | 2.6 | 6.1 | 0.00 | 0.00 | 0.00 | 99 | 1022.2 |
| 20260507013057 | 59 | 90 | 0.0 | 3.5 | 0.00 | 0.00 | 0.00 | 99 | 1022.1 |
| 20260507012554 | 59 | 49 | 4.3 | 5.2 | 0.00 | 0.00 | 0.00 | 99 | 1022.0 |
| 20260507012050 | 59 | 22 | 2.6 | 7.0 | 0.00 | 0.00 | 0.00 | 99 | 1021.9 |
| 20260507011548 | 59 | 30 | 2.6 | 4.3 | 0.00 | 0.00 | 0.00 | 99 | 1021.9 |
| 20260507011044 | 59 | 60 | 0.0 | 3.5 | 0.00 | 0.00 | 0.00 | 99 | 1022.0 |
| 20260507010538 | 59 | 75 | 2.6 | 3.5 | 0.00 | 0.00 | 0.00 | 99 | 1021.9 |
| 20260507010035 | 59 | 90 | 0.0 | 4.3 | 0.00 | 0.00 | 0.00 | 99 | 1021.9 |
| 20260507005533 | 59 | 32 | 2.6 | 2.6 | 0.00 | 0.00 | 0.00 | 99 | 1021.9 |
| 20260507005029 | 59 | 75 | 0.0 | 3.5 | 0.00 | 0.00 | 0.00 | 99 | 1021.6 |
| 20260507004526 | 59 | 84 | 0.0 | 2.6 | 0.00 | 0.00 | 0.00 | 99 | 1021.6 |
| 20260507004023 | 59 | 33 | 1.7 | 2.6 | 0.00 | 0.00 | 0.00 | 99 | 1021.6 |
| 20260507003519 | 59 | 90 | 0.0 | 5.2 | 0.00 | 0.00 | 0.00 | 99 | 1021.5 |
| 20260507003014 | 59 | 37 | 0.0 | 4.3 | 0.00 | 0.00 | 0.00 | 99 | 1021.7 |
| 20260507002511 | 59 | 77 | 1.7 | 6.1 | 0.00 | 0.00 | 0.00 | 99 | 1021.3 |
| 20260507002007 | 60 | 6 | 0.0 | 4.3 | 0.00 | 0.00 | 0.00 | 99 | 1021.6 |
| 20260507001503 | 60 | 90 | 1.7 | 7.8 | 0.00 | 0.00 | 0.00 | 99 | 1021.2 |
| 20260507001001 | 59 | 105 | 2.6 | 7.8 | 0.00 | 0.00 | 0.00 | 99 | 1021.2 |
| 20260507000457 | 60 | 105 | 0.0 | 6.1 | 0.00 | 0.00 | 0.00 | 99 | 1021.2 |
| 20260506235952 | 60 | 45 | 1.7 | 3.5 | 0.00 | 0.00 | 0.00 | 99 | 1021.2 |
| 20260506235450 | 60 | 95 | 1.7 | 4.3 | 0.00 | 0.00 | 0.00 | 99 | 1020.9 |
| 20260506234946 | 60 | 56 | 5.2 | 5.2 | 0.00 | 0.00 | 0.00 | 99 | 1020.8 |
| 20260506234443 | 60 | 100 | 0.0 | 2.6 | 0.00 | 0.00 | 0.00 | 99 | 1020.9 |
| 20260506233941 | 59 | 55 | 2.6 | 6.1 | 0.00 | 0.00 | 0.00 | 99 | 1021.2 |
| 20260506233437 | 59 | 92 | 4.3 | 7.8 | 0.00 | 0.00 | 0.00 | 99 | 1021.2 |
| 20260506232934 | 60 | 114 | 1.7 | 4.3 | 0.00 | 0.00 | 0.00 | 99 | 1021.0 |
| 20260506232430 | 59 | 302 | 2.6 | 6.1 | 0.00 | 0.00 | 0.00 | 99 | 1020.6 |
| 20260506231926 | 60 | 42 | 2.6 | 7.8 | 0.00 | 0.00 | 0.00 | 99 | 1020.8 |
| 20260506231423 | 59 | 62 | 7.0 | 7.0 | 0.00 | 0.00 | 0.00 | 99 | 1020.6 |
| 20260506230921 | 59 | 121 | 1.7 | 7.8 | 0.00 | 0.00 | 0.00 | 99 | 1020.7 |
| 20260506230417 | 59 | 90 | 1.7 | 3.5 | 0.00 | 0.00 | 0.00 | 99 | 1020.9 |
| 20260506225914 | 60 | 65 | 0.0 | 3.5 | 0.00 | 0.00 | 0.00 | 99 | 1020.9 |
| 20260506225411 | 60 | 66 | 0.0 | 6.1 | 0.00 | 0.00 | 0.00 | 99 | 1020.6 |
| 20260506224908 | 60 | 25 | 2.6 | 4.3 | 0.00 | 0.00 | 0.00 | 99 | 1021.0 |
| 20260506224405 | 60 | 90 | 0.9 | 1.7 | 0.00 | 0.00 | 0.00 | 99 | 1020.9 |
| 20260506223901 | 60 | 66 | 0.9 | 2.6 | 0.00 | 0.00 | 0.00 | 99 | 1020.9 |
| 20260506223357 | 59 | 70 | 1.7 | 6.1 | 0.00 | 0.00 | 0.00 | 99 | 1020.6 |
| 20260506222854 | 59 | 0 | 0.0 | 7.0 | 0.00 | 0.00 | 0.00 | 99 | 1020.8 |
| 20260506222350 | 60 | 90 | 1.7 | 5.2 | 0.00 | 0.00 | 0.00 | 99 | 1020.7 |
| 20260506221848 | 60 | 67 | 2.6 | 4.3 | 0.00 | 0.00 | 0.00 | 99 | 1020.9 |
| 20260506221345 | 60 | 21 | 5.2 | 7.8 | 0.00 | 0.00 | 0.00 | 99 | 1020.6 |
| 20260506220842 | 60 | 47 | 2.6 | 6.1 | 0.00 | 0.00 | 0.00 | 99 | 1020.5 |
| 20260506220338 | 60 | 12 | 2.6 | 7.8 | 0.00 | 0.00 | 0.00 | 99 | 1020.5 |
| 20260506215835 | 60 | 349 | 0.0 | 2.6 | 0.00 | 0.00 | 0.00 | 99 | 1020.1 |
| 20260506215330 | 60 | 9 | 1.7 | 7.0 | 0.00 | 0.00 | 0.00 | 99 | 1020.1 |
| 20260506214827 | 60 | 345 | 1.7 | 9.6 | 0.00 | 0.00 | 0.00 | 99 | 1020.3 |
| 20260506214323 | 60 | 324 | 4.3 | 6.1 | 0.00 | 0.00 | 0.00 | 99 | 1020.3 |
| 20260506213822 | 60 | 10 | 2.6 | 7.8 | 0.00 | 0.00 | 0.00 | 99 | 1020.3 |
| 20260506213319 | 60 | 39 | 4.3 | 6.1 | 0.00 | 0.00 | 0.00 | 99 | 1020.9 |
| 20260506212816 | 60 | 73 | 1.7 | 7.0 | 0.00 | 0.00 | 0.00 | 99 | 1020.5 |
| 20260506212312 | 60 | 100 | 1.7 | 5.2 | 0.00 | 0.00 | 0.00 | 99 | 1020.6 |
| 20260506211807 | 60 | 35 | 2.6 | 5.2 | 0.00 | 0.00 | 0.00 | 99 | 1020.5 |
| 20260506211303 | 61 | 352 | 0.0 | 1.7 | 0.00 | 0.00 | 0.00 | 99 | 1020.5 |
| 20260506210801 | 60 | 328 | 1.7 | 7.0 | 0.00 | 0.00 | 0.00 | 99 | 1020.4 |
| 20260506210257 | 60 | 73 | 4.3 | 4.3 | 0.00 | 0.00 | 0.00 | 99 | 1020.5 |
| 20260506205754 | 61 | 102 | 1.7 | 7.0 | 0.00 | 0.00 | 0.00 | 99 | 1020.7 |
| 20260506205250 | 61 | 36 | 1.7 | 3.5 | 0.00 | 0.00 | 0.00 | 99 | 1020.7 |
| 20260506204747 | 60 | 33 | 3.5 | 9.6 | 0.00 | 0.00 | 0.00 | 99 | 1020.7 |
| 20260506204245 | 60 | 32 | 2.6 | 5.2 | 0.00 | 0.00 | 0.00 | 99 | 1020.3 |
| 20260506203742 | 59 | 28 | 7.0 | 10.4 | 0.00 | 0.00 | 0.00 | 99 | 1020.8 |
| 20260506203239 | 60 | 80 | 1.7 | 7.0 | 0.00 | 0.00 | 0.00 | 99 | 1021.0 |
| 20260506202736 | 59 | 330 | 0.0 | 7.8 | 0.00 | 0.00 | 0.00 | 99 | 1021.2 |
| 20260506202233 | 59 | 30 | 3.5 | 5.2 | 0.00 | 0.00 | 0.00 | 99 | 1021.2 |
| 20260506201730 | 59 | 17 | 4.3 | 7.8 | 0.00 | 0.00 | 0.00 | 99 | 1020.9 |
| 20260506201226 | 59 | 51 | 1.7 | 7.8 | 0.00 | 0.00 | 0.00 | 99 | 1021.1 |
| 20260506200723 | 60 | 293 | 2.6 | 8.7 | 0.00 | 0.00 | 0.00 | 99 | 1021.0 |
| 20260506200220 | 59 | 15 | 2.6 | 7.8 | 0.00 | 0.00 | 0.00 | 99 | 1020.8 |
| 20260506195716 | 59 | 290 | 1.7 | 5.2 | 0.00 | 0.00 | 0.00 | 99 | 1021.3 |
| 20260506195212 | 58 | 32 | 1.7 | 5.2 | 0.00 | 0.00 | 0.00 | 99 | 1021.5 |
| 20260506194705 | 57 | 0 | 0.0 | 2.6 | 0.00 | 0.00 | 0.00 | 99 | 1021.3 |
| 20260506194201 | 57 | 33 | 3.5 | 5.2 | 0.00 | 0.00 | 0.00 | 99 | 1021.6 |
| 20260506193659 | 57 | 18 | 0.9 | 2.6 | 0.00 | 0.00 | 0.00 | 99 | 1021.7 |
| 20260506193155 | 57 | 336 | 1.7 | 2.6 | 0.00 | 0.00 | 0.00 | 99 | 1021.7 |
| 20260506192652 | 58 | 29 | 0.0 | 2.6 | 0.00 | 0.00 | 0.00 | 99 | 1021.3 |
| 20260506192148 | 57 | 25 | 4.3 | 4.3 | 0.00 | 0.00 | 0.00 | 99 | 1021.3 |
| 20260506191646 | 57 | 33 | 1.7 | 2.6 | 0.00 | 0.00 | 0.00 | 99 | 1021.4 |
| 20260506191141 | 57 | 0 | 1.7 | 2.6 | 0.00 | 0.00 | 0.00 | 99 | 1021.8 |
| 20260506190639 | 57 | 63 | 0.0 | 2.6 | 0.00 | 0.00 | 0.00 | 99 | 1022.0 |
| 20260506190135 | 57 | 30 | 0.0 | 2.6 | 0.00 | 0.00 | 0.00 | 99 | 1021.6 |